"Period start","avg(HW err(1)/warn(2) (#))","avg(Visibility (m))","avg(Weather code (#))","avg(Precip intensity (mm/h))","min(HW err(1)/warn(2) (#))","max(HW err(1)/warn(2) (#))","std(HW err(1)/warn(2) (#))","med(HW err(1)/warn(2) (#))","min(Visibility (m))","max(Visibility (m))","std(Visibility (m))","med(Visibility (m))","min(Weather code (#))","max(Weather code (#))","std(Weather code (#))","med(Weather code (#))","min(Precip intensity (mm/h))","max(Precip intensity (mm/h))","std(Precip intensity (mm/h))","med(Precip intensity (mm/h))"
2014-09-23 00:00:00,2,49542,0,0.00,2,2,0,2,46300,50000,1104,50000,0,0,0,0,0.00,0.00,0.00,0.00
2014-09-23 00:10:00,2,49295,0,0.00,2,2,0,2,47545,50000,1024,50000,0,0,0,0,0.00,0.00,0.00,0.00
2014-09-23 00:20:00,2,49766,0,0.00,2,2,0,2,48648,50000,476,50000,0,0,0,0,0.00,0.00,0.00,0.00
2014-09-23 00:30:00,2,47094,0,0.00,2,2,0,2,39331,50000,4468,49958,0,0,0,0,0.00,0.00,0.00,0.00
2014-09-23 00:40:00,2,41874,0,0.00,2,2,0,2,30875,50000,6333,41707,0,0,0,0,0.00,0.00,0.00,0.00
2014-09-23 00:50:00,2,42032,0,0.00,2,2,0,2,33854,47359,3629,42357,0,0,0,0,0.00,0.00,0.00,0.00
2014-09-23 01:00:00,2,43788,0,0.00,2,2,0,2,33099,50000,5182,45294,0,0,0,0,0.00,0.00,0.00,0.00
2014-09-23 01:10:00,2,42230,0,0.00,2,2,0,2,31752,50000,6097,43072,0,0,0,0,0.00,0.00,0.00,0.00
2014-09-23 01:20:00,2,42769,0,0.00,2,2,0,2,32124,50000,6196,43542,0,0,0,0,0.00,0.00,0.00,0.00
2014-09-23 01:30:00,2,48713,0,0.00,2,2,0,2,37791,50000,3643,50000,0,0,0,0,0.00,0.00,0.00,0.00
2014-09-23 01:40:00,2,47715,0,0.00,2,2,0,2,35807,50000,4243,50000,0,0,0,0,0.00,0.00,0.00,0.00
2014-09-23 01:50:00,2,45872,0,0.00,2,2,0,2,36563,50000,4426,47569,0,0,0,0,0.00,0.00,0.00,0.00
2014-09-23 02:00:00,2,44211,0,0.00,2,2,0,2,36200,50000,4460,45587,0,0,0,0,0.00,0.00,0.00,0.00
2014-09-23 02:10:00,2,47232,0,0.00,2,2,0,2,38778,50000,3658,48948,0,0,0,0,0.00,0.00,0.00,0.00
2014-09-23 02:20:00,2,43979,0,0.00,2,2,0,2,34736,50000,5515,46176,0,0,0,0,0.00,0.00,0.00,0.00
2014-09-23 02:30:00,2,45296,0,0.00,2,2,0,2,38637,50000,3902,45699,0,0,0,0,0.00,0.00,0.00,0.00
2014-09-23 02:40:00,2,49833,0,0.00,2,2,0,2,48902,50000,355,50000,0,0,0,0,0.00,0.00,0.00,0.00
2014-09-23 02:50:00,2,48518,0,0.00,2,2,0,2,42475,50000,2639,50000,0,0,0,0,0.00,0.00,0.00,0.00
2014-09-23 03:00:00,2,47474,0,0.00,2,2,0,2,43327,50000,2829,48558,0,0,0,0,0.00,0.00,0.00,0.00
2014-09-23 03:10:00,2,49713,0,0.00,2,2,0,2,47128,50000,862,50000,0,0,0,0,0.00,0.00,0.00,0.00
2014-09-23 03:20:00,2,49649,0,0.00,2,2,0,2,48058,50000,707,50000,0,0,0,0,0.00,0.00,0.00,0.00
2014-09-23 03:30:00,2,49640,0,0.00,2,2,0,2,46397,50000,1081,50000,0,0,0,0,0.00,0.00,0.00,0.00
2014-09-23 03:40:00,2,48133,0,0.00,2,2,0,2,40145,50000,3182,50000,0,0,0,0,0.00,0.00,0.00,0.00
2014-09-23 03:50:00,2,49833,0,0.00,2,2,0,2,48328,50000,502,50000,0,0,0,0,0.00,0.00,0.00,0.00
2014-09-23 04:00:00,2,49942,0,0.00,2,2,0,2,49421,50000,174,50000,0,0,0,0,0.00,0.00,0.00,0.00
2014-09-23 04:10:00,2,50000,0,0.00,2,2,0,2,50000,50000,0,50000,0,0,0,0,0.00,0.00,0.00,0.00
2014-09-23 04:20:00,2,50000,0,0.00,2,2,0,2,50000,50000,0,50000,0,0,0,0,0.00,0.00,0.00,0.00
2014-09-23 04:30:00,2,49880,0,0.00,2,2,0,2,48948,50000,314,50000,0,0,0,0,0.00,0.00,0.00,0.00
2014-09-23 04:40:00,2,49763,0,0.00,2,2,0,2,48462,50000,500,50000,0,0,0,0,0.00,0.00,0.00,0.00
2014-09-23 04:50:00,2,49937,0,0.00,2,2,0,2,49366,50000,190,50000,0,0,0,0,0.00,0.00,0.00,0.00
2014-09-23 05:00:00,2,48774,0,0.00,2,2,0,2,42840,50000,2249,50000,0,0,0,0,0.00,0.00,0.00,0.00
2014-09-23 05:10:00,2,49979,0,0.00,2,2,0,2,49789,50000,63,50000,0,0,0,0,0.00,0.00,0.00,0.00
2014-09-23 05:20:00,2,49930,0,0.00,2,2,0,2,49299,50000,210,50000,0,0,0,0,0.00,0.00,0.00,0.00
2014-09-23 05:30:00,2,50000,0,0.00,2,2,0,2,50000,50000,0,50000,0,0,0,0,0.00,0.00,0.00,0.00
2014-09-23 05:40:00,2,49929,0,0.00,2,2,0,2,49415,50000,175,50000,0,0,0,0,0.00,0.00,0.00,0.00
2014-09-23 05:50:00,2,49695,0,0.00,2,2,0,2,47623,50000,719,50000,0,0,0,0,0.00,0.00,0.00,0.00
2014-09-23 06:00:00,2,50000,0,0.00,2,2,0,2,50000,50000,0,50000,0,0,0,0,0.00,0.00,0.00,0.00
2014-09-23 06:10:00,2,49860,0,0.00,2,2,0,2,48604,50000,419,50000,0,0,0,0,0.00,0.00,0.00,0.00
2014-09-23 06:20:00,2,50000,0,0.00,2,2,0,2,50000,50000,0,50000,0,0,0,0,0.00,0.00,0.00,0.00
2014-09-23 06:30:00,2,50000,0,0.00,2,2,0,2,50000,50000,0,50000,0,0,0,0,0.00,0.00,0.00,0.00
2014-09-23 06:40:00,2,50000,0,0.00,2,2,0,2,50000,50000,0,50000,0,0,0,0,0.00,0.00,0.00,0.00
2014-09-23 06:50:00,2,49780,0,0.00,2,2,0,2,48241,50000,530,50000,0,0,0,0,0.00,0.00,0.00,0.00
2014-09-23 07:00:00,2,50000,0,0.00,2,2,0,2,50000,50000,0,50000,0,0,0,0,0.00,0.00,0.00,0.00
2014-09-23 07:10:00,2,50000,0,0.00,2,2,0,2,50000,50000,0,50000,0,0,0,0,0.00,0.00,0.00,0.00
2014-09-23 07:20:00,2,50000,0,0.00,2,2,0,2,50000,50000,0,50000,0,0,0,0,0.00,0.00,0.00,0.00
2014-09-23 07:30:00,2,49846,0,0.00,2,2,0,2,48464,50000,461,50000,0,0,0,0,0.00,0.00,0.00,0.00
2014-09-23 07:40:00,2,50000,0,0.00,2,2,0,2,50000,50000,0,50000,0,0,0,0,0.00,0.00,0.00,0.00
2014-09-23 07:50:00,2,50000,0,0.00,2,2,0,2,50000,50000,0,50000,0,0,0,0,0.00,0.00,0.00,0.00
2014-09-23 08:00:00,2,50000,0,0.00,2,2,0,2,50000,50000,0,50000,0,0,0,0,0.00,0.00,0.00,0.00
2014-09-23 08:10:00,2,49286,0,0.00,2,2,0,2,46072,50000,1436,50000,0,0,0,0,0.00,0.00,0.00,0.00
2014-09-23 08:20:00,2,50000,0,0.00,2,2,0,2,50000,50000,0,50000,0,0,0,0,0.00,0.00,0.00,0.00
2014-09-23 08:30:00,2,50000,0,0.00,2,2,0,2,50000,50000,0,50000,0,0,0,0,0.00,0.00,0.00,0.00
2014-09-23 08:40:00,2,50000,0,0.00,2,2,0,2,50000,50000,0,50000,0,0,0,0,0.00,0.00,0.00,0.00
2014-09-23 08:50:00,2,50000,0,0.00,2,2,0,2,50000,50000,0,50000,0,0,0,0,0.00,0.00,0.00,0.00
2014-09-23 09:00:00,2,50000,0,0.00,2,2,0,2,50000,50000,0,50000,0,0,0,0,0.00,0.00,0.00,0.00
2014-09-23 09:10:00,2,49979,0,0.00,2,2,0,2,49789,50000,63,50000,0,0,0,0,0.00,0.00,0.00,0.00
2014-09-23 09:20:00,2,50000,0,0.00,2,2,0,2,50000,50000,0,50000,0,0,0,0,0.00,0.00,0.00,0.00
2014-09-23 09:30:00,2,50000,0,0.00,2,2,0,2,50000,50000,0,50000,0,0,0,0,0.00,0.00,0.00,0.00
2014-09-23 09:40:00,2,49981,0,0.00,2,2,0,2,49809,50000,57,50000,0,0,0,0,0.00,0.00,0.00,0.00
2014-09-23 09:50:00,2,49656,0,0.00,2,2,0,2,47980,50000,702,50000,0,0,0,0,0.00,0.00,0.00,0.00
2014-09-23 10:00:00,2,49789,0,0.00,2,2,0,2,47894,50000,632,50000,0,0,0,0,0.00,0.00,0.00,0.00
2014-09-23 10:10:00,2,50000,0,0.00,2,2,0,2,50000,50000,0,50000,0,0,0,0,0.00,0.00,0.00,0.00
2014-09-23 10:20:00,2,49899,0,0.00,2,2,0,2,48988,50000,304,50000,0,0,0,0,0.00,0.00,0.00,0.00
2014-09-23 10:30:00,2,50000,0,0.00,2,2,0,2,50000,50000,0,50000,0,0,0,0,0.00,0.00,0.00,0.00
2014-09-23 10:40:00,2,50000,0,0.00,2,2,0,2,50000,50000,0,50000,0,0,0,0,0.00,0.00,0.00,0.00
2014-09-23 10:50:00,2,50000,0,0.00,2,2,0,2,50000,50000,0,50000,0,0,0,0,0.00,0.00,0.00,0.00
2014-09-23 11:00:00,2,50000,0,0.00,2,2,0,2,50000,50000,0,50000,0,0,0,0,0.00,0.00,0.00,0.00
2014-09-23 11:10:00,2,49708,0,0.00,2,2,0,2,48395,50000,578,50000,0,0,0,0,0.00,0.00,0.00,0.00
2014-09-23 11:20:00,2,50000,0,0.00,2,2,0,2,50000,50000,0,50000,0,0,0,0,0.00,0.00,0.00,0.00
2014-09-23 11:30:00,2,49756,0,0.00,2,2,0,2,47738,50000,675,50000,0,0,0,0,0.00,0.00,0.00,0.00
2014-09-23 11:40:00,2,49912,0,0.00,2,2,0,2,49118,50000,265,50000,0,0,0,0,0.00,0.00,0.00,0.00
2014-09-23 11:50:00,2,50000,0,0.00,2,2,0,2,50000,50000,0,50000,0,0,0,0,0.00,0.00,0.00,0.00
2014-09-23 12:00:00,2,50000,0,0.00,2,2,0,2,50000,50000,0,50000,0,0,0,0,0.00,0.00,0.00,0.00
2014-09-23 12:10:00,2,50000,0,0.00,2,2,0,2,50000,50000,0,50000,0,0,0,0,0.00,0.00,0.00,0.00
2014-09-23 12:20:00,2,50000,0,0.00,2,2,0,2,50000,50000,0,50000,0,0,0,0,0.00,0.00,0.00,0.00
2014-09-23 12:30:00,2,49902,0,0.00,2,2,0,2,49023,50000,293,50000,0,0,0,0,0.00,0.00,0.00,0.00
2014-09-23 12:40:00,2,49197,0,0.00,2,2,0,2,44594,50000,1722,50000,0,0,0,0,0.00,0.00,0.00,0.00
2014-09-23 12:50:00,2,49947,0,0.00,2,2,0,2,49469,50000,159,50000,0,0,0,0,0.00,0.00,0.00,0.00
2014-09-23 13:00:00,2,50000,0,0.00,2,2,0,2,50000,50000,0,50000,0,0,0,0,0.00,0.00,0.00,0.00
2014-09-23 13:10:00,2,50000,0,0.00,2,2,0,2,50000,50000,0,50000,0,0,0,0,0.00,0.00,0.00,0.00
2014-09-23 13:20:00,2,49966,0,0.00,2,2,0,2,49663,50000,101,50000,0,0,0,0,0.00,0.00,0.00,0.00
2014-09-23 13:30:00,2,49723,0,0.00,2,2,0,2,47715,50000,685,50000,0,0,0,0,0.00,0.00,0.00,0.00
2014-09-23 13:40:00,2,50000,0,0.00,2,2,0,2,50000,50000,0,50000,0,0,0,0,0.00,0.00,0.00,0.00
2014-09-23 13:50:00,2,49758,0,0.00,2,2,0,2,47576,50000,727,50000,0,0,0,0,0.00,0.00,0.00,0.00
2014-09-23 14:00:00,2,50000,0,0.00,2,2,0,2,50000,50000,0,50000,0,0,0,0,0.00,0.00,0.00,0.00
2014-09-23 14:10:00,2,49926,0,0.00,2,2,0,2,49262,50000,221,50000,0,0,0,0,0.00,0.00,0.00,0.00
2014-09-23 14:20:00,2,50000,0,0.00,2,2,0,2,50000,50000,0,50000,0,0,0,0,0.00,0.00,0.00,0.00
2014-09-23 14:30:00,2,49881,0,0.00,2,2,0,2,48811,50000,357,50000,0,0,0,0,0.00,0.00,0.00,0.00
2014-09-23 14:40:00,2,49456,0,0.00,2,2,0,2,47486,50000,905,50000,0,0,0,0,0.00,0.00,0.00,0.00
2014-09-23 14:50:00,2,48108,0,0.00,2,2,0,2,34119,50000,4681,49844,0,0,0,0,0.00,0.00,0.00,0.00
2014-09-23 15:00:00,2,4920,65,0.59,2,2,0,2,3324,9035,1532,4793,40,71,12,71,0.10,1.20,0.28,0.60
2014-09-23 15:10:00,2,3641,71,1.06,2,2,0,2,2566,6832,1267,3322,71,71,0,71,0.40,1.85,0.44,1.07
2014-09-23 15:20:00,2,1962,71,2.46,2,2,0,2,1374,2581,333,1944,71,71,0,71,1.25,3.95,0.76,2.58
2014-09-23 15:30:00,2,1989,71,3.36,2,2,0,2,830,4793,1190,1758,71,71,0,71,1.05,6.60,1.93,2.62
2014-09-23 15:40:00,2,5066,71,0.57,2,2,0,2,2624,7970,1311,5072,71,71,0,71,0.05,1.15,0.37,0.42
2014-09-23 15:50:00,2,19454,71,0.03,2,2,0,2,6294,39371,11605,16700,71,71,0,71,0.00,0.10,0.04,0.00
2014-09-23 16:00:00,2,33000,37,0.03,2,2,0,2,8329,50000,17001,41492,0,77,37,36,0.00,0.15,0.06,0.00
2014-09-23 16:10:00,2,4335,71,2.71,2,2,0,2,1138,9483,2873,3372,71,71,0,71,0.20,6.90,2.42,1.93
2014-09-23 16:20:00,2,1574,71,5.47,2,2,0,2,953,2674,590,1498,71,71,0,71,1.85,10.95,2.94,5.28
2014-09-23 16:30:00,2,1212,71,7.81,2,2,0,2,648,2428,568,1022,71,72,0,71,3.30,13.55,2.90,7.60
2014-09-23 16:40:00,2,4997,71,3.65,2,2,0,2,594,10949,3406,4887,71,72,0,71,0.10,16.25,4.99,0.85
2014-09-23 16:50:00,2,19227,71,0.05,2,2,0,2,7468,35105,10187,15644,71,71,0,71,0.00,0.25,0.09,0.00
2014-09-23 17:00:00,2,2154,71,3.80,2,2,0,2,1252,4999,1008,1890,71,71,0,71,2.00,5.90,1.11,4.00
2014-09-23 17:10:00,2,9968,71,0.83,2,2,0,2,2178,19749,6081,11604,71,71,0,71,0.00,3.05,1.21,0.05
2014-09-23 17:20:00,2,27159,50,0.00,2,2,0,2,13415,43063,10791,27387,0,77,33,71,0.00,0.00,0.00,0.00
2014-09-23 17:30:00,2,49348,0,0.00,2,2,0,2,47382,50000,937,50000,0,0,0,0,0.00,0.00,0.00,0.00
2014-09-23 17:40:00,2,48854,0,0.00,2,2,0,2,45306,50000,1662,49870,0,0,0,0,0.00,0.00,0.00,0.00
2014-09-23 17:50:00,2,49992,0,0.00,2,2,0,2,49922,50000,23,50000,0,0,0,0,0.00,0.00,0.00,0.00
2014-09-23 18:00:00,2,49989,0,0.00,2,2,0,2,49887,50000,34,50000,0,0,0,0,0.00,0.00,0.00,0.00
2014-09-23 18:10:00,2,50000,0,0.00,2,2,0,2,50000,50000,0,50000,0,0,0,0,0.00,0.00,0.00,0.00
2014-09-23 18:20:00,2,50000,0,0.00,2,2,0,2,50000,50000,0,50000,0,0,0,0,0.00,0.00,0.00,0.00
2014-09-23 18:30:00,2,50000,0,0.00,2,2,0,2,50000,50000,0,50000,0,0,0,0,0.00,0.00,0.00,0.00
2014-09-23 18:40:00,2,50000,0,0.00,2,2,0,2,50000,50000,0,50000,0,0,0,0,0.00,0.00,0.00,0.00
2014-09-23 18:50:00,2,50000,0,0.00,2,2,0,2,50000,50000,0,50000,0,0,0,0,0.00,0.00,0.00,0.00
2014-09-23 19:00:00,2,49991,0,0.00,2,2,0,2,49909,50000,27,50000,0,0,0,0,0.00,0.00,0.00,0.00
2014-09-23 19:10:00,2,49976,0,0.00,2,2,0,2,49763,50000,71,50000,0,0,0,0,0.00,0.00,0.00,0.00
2014-09-23 19:20:00,2,49946,0,0.00,2,2,0,2,49455,50000,164,50000,0,0,0,0,0.00,0.00,0.00,0.00
2014-09-23 19:30:00,2,50000,0,0.00,2,2,0,2,50000,50000,0,50000,0,0,0,0,0.00,0.00,0.00,0.00
2014-09-23 19:40:00,2,49752,0,0.00,2,2,0,2,48237,50000,548,50000,0,0,0,0,0.00,0.00,0.00,0.00
2014-09-23 19:50:00,2,47142,0,0.00,2,2,0,2,32864,50000,5325,49844,0,0,0,0,0.00,0.00,0.00,0.00
2014-09-23 20:00:00,2,27958,22,0.00,2,2,0,2,17153,45499,9584,25336,0,71,29,0,0.00,0.00,0.00,0.00
2014-09-23 20:10:00,2,34920,37,0.01,2,2,0,2,12372,50000,13408,39754,0,77,37,36,0.00,0.05,0.02,0.00
2014-09-23 20:20:00,2,49724,0,0.00,2,2,0,2,47237,50000,829,50000,0,0,0,0,0.00,0.00,0.00,0.00
2014-09-23 20:30:00,2,49831,0,0.00,2,2,0,2,48533,50000,438,50000,0,0,0,0,0.00,0.00,0.00,0.00
2014-09-23 20:40:00,2,49862,0,0.00,2,2,0,2,48619,50000,414,50000,0,0,0,0,0.00,0.00,0.00,0.00
2014-09-23 20:50:00,2,49968,0,0.00,2,2,0,2,49696,50000,91,50000,0,0,0,0,0.00,0.00,0.00,0.00
2014-09-23 21:00:00,2,49742,0,0.00,2,2,0,2,48423,50000,532,50000,0,0,0,0,0.00,0.00,0.00,0.00
2014-09-23 21:10:00,2,49277,0,0.00,2,2,0,2,47571,50000,1063,49986,0,0,0,0,0.00,0.00,0.00,0.00
2014-09-23 21:20:00,2,49013,0,0.00,2,2,0,2,43768,50000,1838,50000,0,0,0,0,0.00,0.00,0.00,0.00
2014-09-23 21:30:00,2,49756,0,0.00,2,2,0,2,47943,50000,615,50000,0,0,0,0,0.00,0.00,0.00,0.00
2014-09-23 21:40:00,2,49689,0,0.00,2,2,0,2,46891,50000,933,50000,0,0,0,0,0.00,0.00,0.00,0.00
2014-09-23 21:50:00,2,48691,0,0.00,2,2,0,2,43835,50000,2328,50000,0,0,0,0,0.00,0.00,0.00,0.00
2014-09-23 22:00:00,2,48549,0,0.00,2,2,0,2,43128,50000,2306,49938,0,0,0,0,0.00,0.00,0.00,0.00
2014-09-23 22:10:00,2,48981,0,0.00,2,2,0,2,44858,50000,2037,50000,0,0,0,0,0.00,0.00,0.00,0.00
2014-09-23 22:20:00,2,48339,0,0.00,2,2,0,2,43385,50000,2303,49472,0,0,0,0,0.00,0.00,0.00,0.00
2014-09-23 22:30:00,2,49387,0,0.00,2,2,0,2,45229,50000,1413,50000,0,0,0,0,0.00,0.00,0.00,0.00
2014-09-23 22:40:00,2,48792,0,0.00,2,2,0,2,42673,50000,2335,50000,0,0,0,0,0.00,0.00,0.00,0.00
2014-09-23 22:50:00,2,46799,0,0.00,2,2,0,2,40233,50000,3908,48964,0,0,0,0,0.00,0.00,0.00,0.00
2014-09-23 23:00:00,2,49660,0,0.00,2,2,0,2,48027,50000,590,50000,0,0,0,0,0.00,0.00,0.00,0.00
2014-09-23 23:10:00,2,46619,0,0.00,2,2,0,2,38781,50000,4169,49062,0,0,0,0,0.00,0.00,0.00,0.00
2014-09-23 23:20:00,2,46720,0,0.00,2,2,0,2,40159,50000,3394,47492,0,0,0,0,0.00,0.00,0.00,0.00
2014-09-23 23:30:00,2,47160,0,0.00,2,2,0,2,38414,50000,3431,48099,0,0,0,0,0.00,0.00,0.00,0.00
2014-09-23 23:40:00,2,36640,0,0.00,2,2,0,2,29697,47238,5703,36100,0,0,0,0,0.00,0.00,0.00,0.00
2014-09-23 23:50:00,2,37747,0,0.00,2,2,0,2,31116,50000,6040,36466,0,0,0,0,0.00,0.00,0.00,0.00
